Temp
83 88 88 84 70 69 64 66 74 71 73 80 80 78 79 81 79 74 82 86 87 87 89 85 79 79 79 79 78 77 77 77 78 78 78 78 78 78 77 77 77 76 76 76 76 75 75 75 75
85 86 85 80 65 61 65 72 69 73 78 80 80 79 78 79 83 82 84 85 87 88 89 88 78 79 79 78 78 77 77 77 77 78 78 78 78 78 77 77 76 75 75 75 74 74 74 74 74
83 83 77 71 66 61 64 71 74 75 79 78 78 81 81 80 82 86 87 86 87 88 90 87 78 78 78 78 77 77 77 77 77 77 77 78 78 77 77 77 75 74 74 74 74 74 74 74 74
82 81 78 65 62 68 69 73 74 74 79 79 80 77 83 85 85 87 87 86 87 89 89 80 77 78 78 77 77 77 77 77 77 77 77 78 78 77 77 76 74 74 73 74 74 73 73 73 73
82 78 66 62 64 70 73 74 75 73 75 78 79 77 80 85 85 85 86 87 87 88 89 85 78 78 77 77 77 77 77 77 77 77 77 77 78 77 77 76 74 74 73 73 74 74 74 74 74
71 74 61 58 64 69 73 77 75 75 77 78 77 78 81 85 84 84 86 87 88 86 86 86 77 77 77 77 77 77 77 77 77 77 77 77 77 76 76 76 74 74 74 73 73 74 74 74 74
68 65 61 63 64 66 71 77 73 75 76 77 81 76 83 84 85 85 86 87 86 86 86 86 85 80 75 75 76 76 76 76 76 76 76 76 74 74 75 76 75 74 74 74 73 74 74 74 74
71 68 62 62 62 62 72 73 77 75 75 81 82 76 78 81 84 85 85 85 85 85 85 86 86 85 83 81 74 74 74 74 74 74 74 73 72 72 73 74 74 74 74 73 73 73 73 73 71
69 61 58 61 62 65 70 69 77 77 75 77 80 79 80 81 82 82 81 81 83 83 84 85 86 85 85 84 78 74 73 72 72 73 71 71 81 80 79 70 72 72 73 73 72 72 71 70 69
65 59 61 68 68 66 69 69 70 71 73 75 77 80 80 79 80 79 80 81 81 82 83 85 85 85 84 83 82 81 81 81 81 81 80 82 82 82 80 72 69 71 70 70 71 70 70 72 82
63 59 65 63 66 66 66 66 71 70 67 74 76 79 79 79 79 79 82 85 84 85 84 84 84 84 83 82 83 82 82 82 82 82 81 81 81 80 81 81 80 80 70 81 78 78 80 77 78
56 62 63 64 66 63 63 68 66 68 71 78 76 77 77 78 80 81 81 83 85 83 83 83 83 80 81 84 83 84 83 82 82 81 81 81 81 79 80 81 80 80 82 80 79 79 77 76 77
57 61 62 64 62 63 65 63 65 67 73 76 76 76 77 79 80 83 83 85 86 83 84 84 83 80 81 81 83 84 83 82 82 81 81 82 80 79 80 80 81 80 80 78 77 78 78 76 75
58 58 59 61 61 63 59 62 64 67 73 73 73 74 77 78 81 82 82 82 84 86 86 86 85 84 84 82 82 83 83 83 82 82 81 81 79 74 77 77 74 71 75 77 77 76 75 74 74
58 53 59 60 61 60 62 56 58 68 71 70 72 75 76 78 81 80 83 83 86 88 88 86 85 85 84 82 82 83 83 82 81 81 81 76 72 71 71 67 66 67 71 74 75 74 73 73 72
53 54 49 57 57 59 58 52 64 69 69 67 70 73 75 76 79 83 84 84 85 85 85 85 83 83 84 83 83 83 83 82 82 80 77 74 72 69 67 68 71 72 71 72 71 71 70 69 69
52 47 47 51 59 57 56 53 62 65 66 65 68 70 71 73 77 80 83 84 84 85 85 84 82 82 83 83 83 83 83 82 81 79 74 72 70 67 66 67 69 71 69 69 69 67 67 66 66
46 46 49 48 55 55 53 53 60 64 64 64 67 69 70 71 73 77 80 82 84 84 85 84 83 82 83 82 82 82 81 78 78 75 70 68 66 68 63 66 67 69 67 66 66 65 64 63 62
48 47 46 52 55 52 51 52 56 61 62 62 64 66 68 70 75 77 78 80 81 81 82 82 81 80 80 78 77 77 74 68 70 70 69 65 64 62 64 61 67 67 65 64 65 63 61 60 61
46 44 45 51 54 51 50 49 56 58 59 62 63 66 68 70 73 76 77 79 79 80 81 81 79 79 78 78 76 76 71 62 61 63 64 66 62 58 63 63 64 64 62 62 62 61 60 59 59
44 43 45 44 50 51 48 47 55 62 64 64 65 66 67 68 70 73 77 76 78 78 79 78 78 76 76 76 75 68 64 59 58 59 59 61 60 56 61 61 63 62 62 59 59 59 58 57 57
40 49 45 44 41 37 46 37 51 58 60 62 65 67 67 68 70 71 73 75 78 78 77 76 76 74 74 72 68 66 66 59 59 60 57 53 54 53 58 60 62 61 60 58 57 58 58 59 55
42 48 45 44 41 39 41 31 47 54 53 57 63 67 69 69 70 70 71 72 76 76 74 73 73 72 70 70 71 70 67 65 61 58 55 52 54 56 61 61 60 59 59 58 57 56 56 57 57
48 44 43 43 38 29 41 37 43 53 57 60 63 65 68 69 70 70 72 72 73 74 71 70 70 69 69 70 70 70 65 59 57 55 49 49 52 58 60 59 59 59 57 56 55 55 54 55 55
44 36 31 28 26 30 46 42 44 56 58 60 62 66 67 69 69 69 69 69 69 70 68 68 68 67 68 69 69 68 62 59 59 56 50 55 53 57 57 58 58 57 56 55 55 54 54 54 53
38 38 33 26 33 37 42 35 47 60 62 63 65 64 65 67 69 68 69 68 69 68 68 67 67 66 67 67 67 64 60 60 54 53 52 55 55 56 58 58 57 56 55 55 54 54 54 53 53
37 32 44 33 36 30 38 47 55 59 58 59 61 63 62 64 66 67 69 68 69 68 68 67 67 65 66 66 65 60 58 54 55 51 53 54 57 57 57 57 56 55 54 54 53 55 53 52 52
43 47 31 32 24 26 38 41 43 51 54 58 59 60 61 63 65 67 67 68 68 68 67 67 67 65 65 65 64 59 54 52 51 52 51 54 57 56 55 55 55 54 53 53 52 52 51 50 51
37 33 35 39 37 29 31 41 54 54 57 57 59 59 61 61 63 63 65 67 66 66 65 64 64 63 62 62 60 56 52 51 52 54 55 57 56 56 55 54 54 53 52 52 52 51 50 48 48
48 43 41 30 31 33 32 35 55 58 59 57 57 60 61 61 59 60 62 63 62 61 62 62 61 60 59 58 56 53 51 53 55 56 56 56 55 55 54 53 53 51 50 51 50 49 48 47 46
MSLP
1013.08 1012.53 1012.26 1011.57 1011.01 1009.81 1008.53 1008.37 1008.36 1007.97 1007.82 1007.73 1007.82 1007.56 1006.95 1006.85 1006.34 1007.28 1008.88 1009.12 1009.36 1009.71 1010.24 1011.22 1011.88 1012.33 1012.61 1012.87 1013.13 1013.43 1013.62 1013.80 1014.03 1014.22 1014.35 1014.59 1014.82 1015.06 1015.18 1015.40 1015.53 1015.56 1015.48 1015.47 1015.47 1015.47 1015.55 1015.69 1015.76
1012.82 1012.33 1011.82 1011.01 1010.15 1008.79 1007.89 1008.22 1008.15 1008.08 1008.04 1007.99 1007.87 1007.59 1007.34 1006.46 1007.39 1008.01 1008.63 1009.41 1009.54 1009.70 1010.12 1010.76 1011.85 1012.32 1012.70 1013.03 1013.31 1013.51 1013.74 1013.97 1014.07 1014.22 1014.34 1014.64 1014.95 1015.17 1015.31 1015.52 1015.66 1015.76 1015.74 1015.69 1015.70 1015.77 1015.81 1015.83 1015.86
1012.88 1012.50 1011.28 1010.45 1009.43 1008.20 1007.84 1008.19 1008.07 1008.34 1008.15 1007.89 1007.57 1007.64 1007.09 1007.04 1007.82 1007.98 1008.78 1009.43 1009.72 1009.95 1010.08 1010.80 1011.91 1012.29 1012.76 1013.14 1013.50 1013.68 1013.84 1014.02 1014.23 1014.32 1014.38 1014.65 1014.88 1015.14 1015.35 1015.59 1015.74 1015.88 1015.92 1015.90 1015.93 1015.96 1016.07 1016.16 1016.04
1012.41 1011.93 1011.69 1010.44 1008.73 1008.61 1008.51 1008.30 1008.56 1008.30 1008.01 1008.10 1007.81 1007.23 1007.44 1007.93 1007.86 1008.42 1009.18 1009.60 1009.80 1010.16 1010.43 1011.34 1012.04 1012.43 1012.72 1013.15 1013.56 1013.85 1013.98 1014.12 1014.25 1014.43 1014.52 1014.66 1014.83 1015.14 1015.38 1015.59 1015.80 1016.01 1016.08 1016.06 1016.06 1016.14 1016.20 1016.24 1016.19
1012.24 1011.44 1010.38 1009.70 1008.70 1008.52 1008.77 1008.74 1008.73 1008.45 1008.25 1007.91 1007.94 1007.12 1007.20 1007.94 1008.53 1008.90 1009.23 1009.68 1009.79 1010.27 1010.48 1011.36 1012.11 1012.44 1012.83 1013.21 1013.48 1013.86 1014.08 1014.19 1014.35 1014.50 1014.67 1014.76 1014.95 1015.13 1015.35 1015.58 1015.81 1016.03 1016.17 1016.17 1016.11 1016.13 1016.19 1016.17 1016.16
1011.66 1011.04 1009.98 1009.02 1008.61 1008.90 1008.87 1008.72 1008.86 1008.48 1008.32 1007.97 1007.81 1007.48 1007.19 1008.21 1008.55 1009.08 1009.39 1009.60 1010.03 1010.46 1010.79 1011.21 1012.13 1012.55 1012.91 1013.24 1013.52 1013.79 1014.06 1014.28 1014.39 1014.52 1014.72 1014.89 1015.05 1015.17 1015.29 1015.46 1015.77 1015.99 1016.13 1016.20 1016.21 1016.14 1016.11 1016.13 1016.12
1011.21 1010.73 1009.50 1009.15 1008.73 1008.69 1008.61 1008.94 1008.81 1008.44 1008.28 1007.87 1007.91 1007.37 1007.45 1008.00 1008.73 1009.25 1009.50 1009.77 1010.22 1010.51 1010.80 1011.11 1011.81 1012.46 1013.03 1013.27 1013.54 1013.77 1013.99 1014.27 1014.48 1014.66 1014.79 1015.01 1015.25 1015.35 1014.99 1015.10 1015.62 1015.86 1016.09 1016.20 1016.15 1016.10 1016.09 1016.06 1016.03
1011.57 1010.82 1009.81 1009.55 1008.78 1008.67 1008.86 1009.21 1008.90 1008.64 1008.04 1008.51 1008.29 1007.33 1007.44 1008.60 1009.12 1009.41 1009.75 1009.97 1010.20 1010.57 1010.82 1011.05 1011.42 1011.99 1012.49 1013.02 1013.56 1013.83 1014.07 1014.31 1014.46 1014.68 1014.89 1015.08 1015.26 1015.27 1015.17 1015.35 1015.75 1015.85 1016.01 1016.11 1016.09 1016.17 1016.12 1016.10 1016.18
1012.27 1010.98 1009.81 1009.38 1009.15 1009.13 1009.63 1009.30 1008.99 1009.19 1008.74 1008.48 1008.30 1008.29 1008.74 1009.23 1009.42 1009.58 1009.77 1010.04 1010.18 1010.51 1010.72 1010.97 1011.25 1011.65 1012.02 1012.41 1013.21 1013.95 1014.19 1014.44 1014.63 1014.73 1014.95 1015.13 1014.75 1014.95 1015.10 1015.59 1015.84 1016.05 1016.08 1016.12 1016.14 1016.25 1016.21 1016.20 1016.24
1011.88 1011.05 1009.95 1009.85 1009.80 1009.74 1009.77 1009.62 1009.42 1009.22 1008.71 1008.31 1008.39 1008.73 1008.95 1009.26 1009.34 1009.33 1009.31 1009.33 1009.67 1010.03 1010.37 1010.70 1011.07 1011.41 1011.90 1012.40 1012.77 1013.15 1013.48 1013.90 1014.00 1014.20 1014.50 1014.45 1014.66 1014.80 1015.11 1015.54 1015.84 1016.06 1016.18 1016.20 1016.20 1016.21 1016.20 1016.09 1015.54
1012.15 1010.96 1010.64 1011.08 1010.89 1010.78 1010.50 1010.18 1010.08 1009.30 1008.58 1008.27 1008.19 1008.19 1008.80 1008.93 1009.17 1009.18 1008.95 1008.77 1009.11 1009.57 1010.03 1010.54 1010.81 1011.15 1011.65 1012.10 1012.38 1012.76 1013.01 1013.34 1013.63 1013.85 1014.12 1014.35 1014.74 1015.04 1015.06 1015.11 1015.24 1015.36 1015.93 1015.48 1015.67 1015.62 1015.76 1016.02 1016.02
1012.45 1011.92 1011.71 1011.55 1011.60 1011.35 1010.86 1010.61 1010.10 1009.53 1008.72 1008.61 1009.12 1008.99 1008.89 1008.68 1008.55 1008.55 1008.57 1008.61 1008.83 1009.22 1009.70 1010.29 1010.67 1011.03 1011.32 1011.48 1011.90 1012.10 1012.52 1012.85 1013.18 1013.65 1013.89 1014.08 1014.37 1014.83 1014.84 1014.86 1015.09 1015.15 1015.30 1015.34 1015.52 1015.75 1016.06 1016.29 1016.18
1012.58 1012.16 1012.36 1012.09 1012.25 1011.75 1011.41 1010.66 1010.16 1009.58 1009.40 1009.34 1009.05 1008.87 1008.58 1008.35 1008.23 1008.20 1008.27 1008.16 1008.37 1008.70 1009.06 1009.55 1010.30 1010.68 1010.82 1011.12 1011.29 1011.46 1011.95 1012.54 1012.70 1013.22 1013.66 1013.81 1014.05 1014.38 1014.75 1015.04 1015.10 1015.21 1015.56 1015.76 1015.90 1015.86 1016.09 1016.17 1016.22
1012.99 1012.90 1012.63 1012.39 1012.03 1011.77 1011.35 1010.39 1010.37 1009.39 1009.18 1008.90 1008.73 1008.46 1008.20 1007.96 1007.63 1007.72 1007.82 1007.90 1008.02 1008.08 1008.31 1008.84 1009.34 1009.92 1010.29 1010.55 1010.70 1011.00 1011.48 1011.92 1012.37 1012.74 1013.21 1013.65 1014.09 1014.60 1014.55 1015.16 1015.73 1016.21 1016.19 1016.07 1016.06 1016.24 1016.37 1016.35 1016.32
1013.36 1012.98 1012.27 1011.73 1011.53 1011.32 1011.22 1009.88 1008.75 1008.77 1008.66 1008.27 1008.01 1007.67 1007.57 1007.38 1007.24 1007.13 1007.23 1007.26 1007.37 1007.46 1007.81 1008.18 1008.73 1009.27 1009.64 1010.07 1010.32 1010.56 1010.94 1011.50 1011.97 1012.36 1012.88 1013.73 1014.30 1014.78 1015.14 1015.67 1016.12 1016.58 1016.59 1016.36 1016.48 1016.65 1016.70 1016.58 1016.49
1013.10 1012.80 1011.67 1011.15 1011.31 1011.11 1011.28 1008.47 1008.13 1008.17 1007.90 1007.70 1007.51 1007.29 1006.97 1006.80 1006.65 1006.49 1006.51 1006.76 1007.06 1007.24 1007.49 1007.97 1008.55 1008.71 1008.98 1009.32 1009.82 1010.08 1010.35 1010.89 1011.42 1012.15 1012.92 1013.52 1014.17 1014.77 1015.26 1015.57 1015.76 1015.99 1016.47 1016.63 1016.81 1016.89 1016.99 1016.83 1016.66
1012.73 1011.75 1011.63 1011.36 1011.08 1011.10 1010.84 1008.72 1008.35 1008.40 1007.95 1007.65 1007.23 1007.01 1006.86 1006.57 1006.20 1006.17 1006.14 1006.38 1006.61 1006.71 1006.81 1007.22 1007.94 1008.24 1008.56 1008.92 1009.31 1009.70 1009.99 1010.39 1011.04 1012.06 1012.82 1013.46 1014.15 1014.83 1015.21 1015.62 1015.96 1016.15 1016.45 1016.80 1017.06 1017.31 1017.17 1017.01 1016.78
1011.66 1011.98 1011.77 1011.54 1011.18 1011.11 1010.30 1009.00 1008.64 1008.46 1008.03 1007.44 1006.97 1006.61 1006.39 1006.18 1005.87 1005.92 1005.81 1005.85 1005.95 1006.22 1006.31 1006.57 1006.96 1007.49 1007.95 1008.56 1009.04 1009.42 1009.88 1010.30 1010.93 1011.85 1012.90 1013.61 1014.34 1014.93 1015.45 1015.96 1016.18 1016.34 1016.66 1016.97 1017.25 1017.29 1017.46 1017.50 1017.28
1012.99 1012.62 1012.17 1011.86 1011.79 1011.24 1009.93 1008.71 1008.37 1007.98 1007.36 1006.80 1006.28 1005.93 1005.61 1005.24 1005.34 1005.38 1005.37 1005.36 1005.42 1005.65 1005.85 1006.01 1006.34 1006.87 1007.53 1008.02 1008.45 1009.02 1009.79 1011.15 1011.58 1012.20 1013.08 1013.76 1014.43 1015.30 1015.74 1016.28 1016.44 1016.44 1016.87 1017.15 1017.24 1017.39 1017.57 1017.74 1017.61
1013.64 1013.10 1012.52 1012.10 1011.92 1011.66 1010.21 1007.14 1007.62 1007.05 1005.62 1005.45 1005.20 1004.78 1004.37 1004.29 1004.15 1004.19 1004.39 1004.47 1004.57 1004.82 1005.12 1005.47 1005.84 1006.29 1006.99 1007.84 1008.49 1009.30 1010.37 1011.90 1012.17 1012.69 1013.55 1013.99 1014.64 1015.45 1015.77 1016.07 1016.64 1016.75 1017.10 1017.30 1017.42 1017.57 1017.81 1017.97 1018.04
1013.74 1013.27 1012.82 1012.50 1012.30 1011.88 1010.53 1006.34 1005.03 1003.93 1003.84 1003.84 1003.85 1003.80 1003.58 1003.32 1003.13 1003.02 1002.96 1003.35 1003.60 1003.93 1004.34 1004.98 1005.39 1005.98 1006.70 1007.47 1008.56 1010.02 1011.20 1012.17 1012.67 1013.30 1014.06 1014.64 1015.13 1015.75 1016.30 1016.28 1016.79 1016.96 1017.19 1017.55 1017.80 1017.97 1017.97 1017.92 1018.41
1013.45 1013.22 1013.43 1013.14 1012.85 1011.47 1011.25 1006.75 1004.44 1003.49 1002.90 1002.90 1002.75 1002.53 1002.35 1002.36 1002.56 1002.57 1002.35 1002.37 1002.57 1003.02 1003.81 1004.51 1005.15 1005.72 1006.50 1007.46 1008.41 1009.31 1009.63 1010.91 1012.24 1013.27 1014.38 1015.22 1015.75 1016.19 1016.72 1016.70 1016.90 1017.20 1017.47 1017.77 1018.12 1018.35 1018.36 1018.32 1018.50
1013.55 1013.68 1013.61 1013.30 1012.68 1011.83 1010.50 1009.99 1002.74 1003.08 1002.41 1002.24 1001.81 1001.48 1001.39 1001.56 1001.72 1001.71 1001.67 1002.00 1002.17 1002.65 1003.29 1004.11 1004.91 1005.56 1006.38 1007.17 1007.42 1008.61 1009.72 1010.87 1012.18 1013.74 1014.72 1015.69 1016.13 1016.44 1016.62 1016.84 1017.20 1017.46 1017.71 1018.06 1018.36 1018.61 1018.74 1018.84 1018.78
1014.01 1014.02 1013.80 1013.36 1012.98 1010.88 1008.74 1008.30 1002.07 1001.54 1000.82 1000.88 1001.03 1000.97 1000.91 1000.99 1001.06 1001.16 1001.13 1001.34 1001.68 1002.28 1003.12 1003.78 1004.55 1005.32 1006.12 1006.52 1007.12 1007.77 1009.30 1010.78 1012.17 1013.75 1014.80 1015.64 1016.21 1016.27 1016.88 1016.92 1017.36 1017.72 1018.04 1018.35 1018.67 1018.89 1019.05 1019.16 1019.33
1014.03 1014.24 1013.28 1012.83 1011.98 1008.78 1007.27 1006.22 1002.08 1000.77 1000.88 1001.03 1000.47 1000.29 1000.57 1000.66 1000.56 1000.55 1000.61 1000.68 1001.18 1001.78 1002.71 1003.51 1004.35 1005.05 1005.77 1006.24 1006.87 1007.89 1009.53 1010.73 1011.60 1012.98 1014.13 1015.09 1015.75 1016.26 1016.86 1016.95 1017.48 1017.85 1018.27 1018.69 1018.87 1019.04 1019.25 1019.42 1019.37
1013.41 1013.64 1012.60 1010.94 1009.34 1007.59 1007.47 1004.07 1000.46 1000.44 1000.58 1000.65 1000.47 1000.41 1000.51 1000.27 1000.02 1000.07 1000.11 1000.14 1000.56 1001.27 1002.09 1003.02 1003.93 1004.98 1005.63 1006.22 1007.03 1008.47 1009.88 1010.85 1012.08 1013.09 1014.15 1014.84 1015.75 1016.30 1016.76 1017.17 1017.65 1018.07 1018.44 1018.81 1018.99 1019.15 1019.31 1019.48 1019.46
1013.21 1012.86 1012.54 1011.82 1010.48 1008.60 1005.70 1002.27 1000.53 999.96 1000.09 1000.21 1000.12 1000.26 1000.35 1000.22 999.85 999.63 999.67 999.83 1000.12 1000.82 1001.54 1002.50 1003.57 1004.75 1005.52 1006.28 1007.45 1008.91 1010.00 1011.25 1012.16 1013.46 1014.32 1014.96 1015.80 1016.33 1016.90 1017.47 1017.88 1018.34 1018.64 1018.88 1019.02 1019.10 1019.27 1019.43 1019.47
1012.35 1012.33 1012.47 1012.27 1009.89 1006.98 1003.60 1001.65 999.89 999.26 999.44 999.55 999.80 1000.28 1000.42 1000.20 999.68 999.32 999.35 999.43 999.93 1000.57 1001.48 1002.58 1003.77 1004.91 1005.62 1006.54 1007.61 1009.18 1010.55 1011.80 1012.66 1013.63 1014.45 1015.17 1015.85 1016.48 1017.14 1017.60 1018.16 1018.61 1018.86 1019.01 1019.09 1019.18 1019.35 1019.35 1019.19
1012.05 1012.02 1011.88 1011.11 1009.60 1007.13 1003.67 1000.19 999.51 999.39 999.29 999.22 999.07 1000.07 1000.34 1000.19 999.94 999.70 999.40 999.52 1000.07 1000.92 1001.81 1002.85 1004.00 1005.08 1006.25 1007.13 1008.25 1009.63 1011.03 1012.08 1013.02 1013.68 1014.68 1015.31 1015.96 1016.69 1017.27 1017.84 1018.34 1018.73 1018.94 1019.03 1019.04 1019.13 1019.22 1019.15 1019.11
1010.06 1009.92 1010.48 1010.12 1007.99 1006.64 1004.88 999.28 999.99 999.69 999.56 999.99 999.75 999.71 1000.02 1000.33 1000.42 1000.21 1000.02 1000.09 1000.75 1001.59 1002.48 1003.31 1004.56 1005.67 1006.77 1007.86 1008.78 1010.07 1011.40 1012.33 1013.15 1014.11 1014.92 1015.55 1016.17 1016.88 1017.53 1018.09 1018.51 1018.78 1019.01 1019.05 1019.05 1019.08 1019.10 1019.07 1018.99
Wind_Speed
11 8 4 4 6 5 6 4 2 3 4 1 3 7 4 8 3 2 5 7 8 16 15 16 16 15 15 15 14 12 11 9 8 7 7 10 9 9 8 7 6 5 6 7 8 10 10 9 9
7 5 3 2 7 9 7 5 8 1 5 6 6 7 8 2 1 4 10 7 9 15 14 16 17 16 16 15 14 12 11 9 8 8 9 13 10 8 8 6 6 6 6 6 7 8 8 8 7
5 4 4 4 8 12 5 6 6 2 4 3 3 4 3 2 3 4 5 10 12 14 13 13 17 17 16 14 13 11 10 9 8 7 10 12 10 8 7 6 6 6 6 6 6 6 6 6 6
5 5 4 9 14 8 7 3 3 3 3 1 4 5 2 2 2 3 7 9 13 13 12 17 17 16 15 14 13 11 11 10 9 9 9 8 9 8 7 7 7 6 6 7 7 6 4 3 4
4 3 8 11 18 12 9 5 5 6 5 4 4 0 1 4 3 4 10 9 13 13 12 15 15 16 16 15 14 11 10 10 10 10 9 7 8 8 7 8 7 6 5 4 4 4 4 3 2
6 5 8 15 17 10 11 10 10 10 6 5 5 5 0 3 3 6 9 10 11 12 11 13 12 14 15 15 13 12 11 10 10 9 8 5 4 2 4 7 8 6 4 2 1 2 3 3 3
12 9 15 16 14 13 13 7 11 11 9 7 1 5 3 4 5 8 9 9 10 11 11 11 12 11 13 13 12 11 11 9 9 9 8 4 5 4 11 12 10 7 4 1 2 4 4 3 4
6 7 14 12 16 17 5 7 6 8 7 1 2 6 4 4 6 8 9 9 10 11 11 11 11 12 12 12 11 10 9 9 8 7 5 6 5 5 10 11 8 6 3 0 4 3 3 4 4
2 8 12 19 14 9 4 9 10 2 7 3 3 3 3 1 6 9 9 9 9 10 11 10 11 11 10 10 10 9 8 8 8 7 6 6 5 5 5 8 4 2 2 2 3 4 4 2 5
10 10 15 7 11 7 5 8 3 6 10 11 8 5 2 3 8 10 10 11 11 12 12 11 11 11 10 8 10 10 9 8 8 8 9 7 6 4 1 4 4 3 2 2 3 3 1 6 2
9 13 8 5 6 3 8 9 7 11 13 12 11 6 1 1 6 9 10 9 10 10 10 12 12 11 12 9 8 6 5 5 6 8 7 6 4 5 5 4 5 4 4 3 4 5 3 4 4
8 10 10 7 9 6 10 8 13 14 19 8 8 6 8 8 6 8 11 10 10 10 12 12 13 13 13 9 9 8 7 7 6 7 9 6 5 5 4 3 3 3 2 3 3 2 3 2 3
10 8 8 10 9 12 13 18 21 19 18 17 16 15 16 14 13 9 9 10 9 11 12 13 14 14 13 13 10 9 9 8 8 8 9 7 6 5 4 3 3 2 2 3 2 2 2 3 4
1 6 9 9 13 13 16 21 19 18 18 22 23 23 22 21 18 14 10 11 12 12 12 12 15 15 14 14 14 10 9 10 9 9 9 9 5 5 5 5 4 4 2 2 2 2 2 3 4
6 11 13 14 13 13 10 21 21 21 22 25 22 21 20 22 21 19 16 13 12 11 11 11 13 14 16 16 14 11 10 10 9 9 11 10 8 8 8 6 6 4 2 4 3 3 2 2 3
5 6 6 4 1 4 9 16 6 9 13 16 20 21 22 22 23 22 19 16 13 11 10 9 8 13 16 15 13 11 11 11 10 9 9 10 9 9 7 6 6 6 4 3 3 3 1 3 4
9 8 9 10 4 4 11 12 3 3 9 12 12 13 14 17 20 21 21 18 15 13 13 11 11 13 14 14 12 13 13 11 10 9 8 11 10 9 7 5 6 6 5 4 3 3 3 4 5
5 12 9 11 2 9 17 22 20 19 21 20 18 17 17 18 17 16 17 17 18 16 13 12 10 11 12 10 11 10 10 9 9 9 8 12 9 10 7 6 7 6 5 4 3 4 4 5 5
5 7 11 10 9 18 19 22 21 21 23 24 23 22 23 23 20 18 17 15 14 14 14 13 11 11 10 11 12 11 10 8 7 8 11 11 11 10 9 6 6 7 5 5 4 4 5 4 6
14 16 17 15 13 14 20 33 24 25 29 26 25 25 25 25 24 22 20 19 17 15 14 13 12 13 13 10 10 10 9 5 6 8 10 11 12 9 10 7 6 8 6 7 6 4 2 3 6
16 17 16 17 16 18 22 30 16 8 14 17 22 25 25 25 24 23 23 21 18 17 14 13 13 13 14 14 9 9 10 8 6 8 9 9 11 8 9 10 7 7 6 6 6 5 3 3 3
14 7 12 13 9 7 3 16 18 16 15 14 15 16 18 19 20 22 22 22 20 17 14 13 13 15 14 16 14 17 11 11 7 9 8 8 9 8 8 9 9 8 6 7 6 4 4 2 3
7 5 7 8 12 15 15 8 14 5 13 12 16 17 14 14 16 19 20 20 18 16 13 13 14 15 15 17 15 14 13 10 11 10 13 9 8 9 9 10 9 8 6 7 6 5 4 3 2
2 6 9 10 6 10 17 16 20 14 11 9 9 9 10 10 12 15 17 15 16 15 13 14 16 16 16 16 17 18 18 17 14 14 9 7 6 8 9 10 8 8 7 7 5 5 4 2 1
11 3 3 4 7 9 2 11 23 10 5 13 20 19 13 14 12 13 13 14 15 15 15 15 17 16 17 17 17 17 18 18 20 17 11 13 9 8 9 10 9 7 7 6 5 4 3 1 2
15 9 6 7 7 8 4 13 12 10 10 16 17 11 11 12 12 13 13 12 15 17 18 17 18 17 17 17 17 15 15 12 11 11 10 9 8 9 11 9 8 8 7 6 4 3 1 1 2
6 11 11 16 20 16 12 22 24 25 22 20 20 16 10 10 13 11 13 11 13 15 18 19 18 17 18 18 16 17 14 15 13 13 10 8 10 10 10 10 9 7 6 5 4 1 1 3 3
13 3 5 6 7 11 13 21 15 13 9 7 9 9 8 11 14 12 10 10 11 13 15 16 16 16 17 18 16 15 15 14 13 12 11 12 12 11 11 9 8 7 5 4 2 1 1 3 3
11 9 8 8 10 8 15 10 2 10 10 16 4 4 9 11 14 13 9 8 10 12 15 15 16 18 17 16 16 17 14 15 13 12 12 13 13 12 10 9 7 6 5 3 1 1 2 4 5
15 15 19 10 14 12 17 24 7 12 8 4 4 9 8 11 11 10 6 7 10 13 15 16 16 17 16 16 18 18 15 14 15 14 13 13 12 11 9 8 6 5 3 1 1 3 4 5 6
Wind_Direction
305 309 289 236 243 242 236 215 277 206 207 274 295 253 312 321 281 17 117 138 147 151 162 168 152 151 151 147 142 139 137 137 147 160 162 157 126 127 101 86 81 66 51 54 58 63 64 66 67
311 296 237 255 250 231 213 203 203 152 326 303 271 232 243 237 23 87 142 153 159 152 162 162 153 150 152 150 147 145 143 140 146 158 167 141 119 111 106 110 94 73 62 58 53 55 52 48 44
260 289 252 235 238 237 244 189 157 339 333 240 240 258 301 67 104 125 72 139 163 157 158 140 152 153 156 155 151 148 144 146 148 130 140 138 121 114 123 120 93 77 72 73 70 60 52 50 50
222 186 188 241 230 234 246 161 151 333 143 67 336 244 195 45 103 79 139 148 161 160 161 135 157 157 156 157 157 154 147 144 144 140 125 140 133 152 144 131 111 91 84 83 79 68 59 32 14
207 231 230 237 243 240 235 265 262 281 303 304 327 216 259 133 114 129 144 156 164 163 162 154 161 162 159 162 161 159 156 150 147 148 151 164 159 172 170 154 139 123 110 95 72 63 43 28 6
190 250 225 232 234 223 247 254 263 263 268 293 249 263 332 83 159 134 147 155 163 166 164 151 160 166 161 165 167 165 163 165 158 158 157 174 178 181 214 187 159 142 127 110 47 16 17 3 351
233 218 232 242 244 244 240 237 243 263 263 244 293 248 94 157 100 143 147 150 162 174 172 171 173 172 163 167 170 170 168 168 167 170 176 158 98 20 300 194 160 150 140 132 344 20 358 2 12
235 241 232 227 239 241 207 220 254 237 247 11 259 225 178 53 135 152 154 157 165 171 177 179 178 181 178 175 166 169 165 165 165 166 174 122 112 53 56 125 148 147 160 77 22 12 12 24 30
202 227 229 228 238 227 189 224 221 275 257 233 210 283 22 68 165 172 171 172 173 178 182 184 185 188 188 189 164 168 164 166 161 166 153 164 191 157 169 67 101 80 99 53 37 19 26 29 98
214 226 235 259 251 238 229 247 204 235 213 225 210 178 55 160 187 199 198 191 190 185 186 186 189 191 191 191 176 190 176 190 190 185 174 201 183 167 187 109 113 110 92 100 71 68 131 244 47
206 230 220 230 235 258 254 242 242 244 243 235 229 233 4 54 203 225 228 224 202 196 189 196 188 190 192 191 191 191 187 193 184 180 175 179 188 187 195 173 180 187 190 189 185 163 67 45 4
224 243 243 249 239 259 246 268 252 245 250 266 280 280 293 269 261 236 230 226 212 200 202 196 196 188 200 196 196 194 195 187 179 181 175 168 165 175 173 186 160 184 180 138 65 79 76 62 23
231 245 249 250 256 259 265 254 258 260 254 257 263 265 267 268 264 257 247 239 223 212 205 200 200 200 196 199 198 196 198 193 182 176 178 173 170 165 161 161 148 112 115 104 133 83 67 32 13
138 253 266 268 256 260 261 262 253 246 254 256 256 257 256 259 259 256 238 241 234 232 220 205 204 203 201 201 199 193 196 188 183 177 178 178 156 152 158 137 100 95 45 97 73 54 33 31 2
244 268 266 257 254 263 263 263 245 250 248 254 251 249 248 250 253 250 247 246 243 236 231 218 215 207 209 206 202 195 192 187 186 182 171 170 163 162 146 134 126 113 102 94 87 68 28 10 348
237 251 264 121 328 233 219 261 280 286 241 250 255 255 250 243 246 248 247 250 252 249 227 228 218 215 212 209 202 198 189 186 185 176 171 169 161 152 145 146 143 139 117 94 74 37 29 352 343
211 260 239 286 234 272 220 280 207 323 261 261 259 260 261 257 251 253 255 254 251 247 244 235 217 221 217 214 202 201 191 185 178 177 164 160 152 144 134 132 135 127 114 103 100 77 19 7 356
250 229 241 256 167 270 272 265 269 270 274 271 266 261 257 257 252 252 252 249 250 246 240 234 224 220 206 202 199 196 191 173 173 162 155 146 136 137 119 125 133 125 120 121 114 94 63 22 353
300 272 263 259 270 297 275 274 274 274 268 264 260 256 257 256 254 253 251 250 241 233 232 229 219 205 193 190 190 186 181 167 154 142 143 134 128 122 128 132 138 121 116 110 105 90 50 34 359
254 265 268 280 280 282 289 283 283 269 260 256 255 256 253 251 250 247 241 242 234 231 221 221 212 195 191 188 185 182 152 155 129 122 127 133 130 119 126 137 140 127 124 103 87 75 97 58 23
241 253 264 274 299 285 283 281 259 263 253 256 250 252 257 254 248 242 239 232 232 228 223 215 204 189 187 183 155 136 124 115 117 126 122 121 124 115 135 129 141 125 116 107 94 79 49 62 57
261 253 255 268 277 275 39 291 286 280 276 261 259 247 244 246 246 246 245 240 227 223 215 206 194 186 182 165 169 176 164 154 158 143 128 121 120 110 144 133 130 122 119 112 101 87 72 24 35
242 221 236 257 269 289 242 251 273 205 270 256 262 262 260 259 253 248 237 237 237 221 204 195 188 183 175 183 174 175 159 137 133 135 135 125 125 130 138 130 126 119 109 107 108 106 89 66 13
90 236 256 263 263 251 245 211 276 278 273 259 251 274 272 262 257 252 246 234 230 222 199 186 183 182 177 178 176 172 156 149 145 147 138 136 131 134 143 128 122 119 118 117 112 106 100 86 67
216 187 261 228 206 247 8 219 243 268 217 268 280 297 283 291 281 264 248 226 216 206 194 184 183 178 177 173 172 162 160 158 156 152 146 147 149 150 146 133 135 124 116 118 122 119 134 150 285
197 201 230 254 242 281 68 245 247 262 269 263 265 274 289 300 295 267 250 224 217 201 191 182 180 175 172 166 162 153 153 152 141 139 140 139 149 143 142 131 127 125 126 129 136 137 148 221 267
171 215 240 279 273 273 242 262 273 267 261 254 261 266 255 303 316 303 259 230 210 197 185 181 177 171 167 161 150 148 143 139 140 131 127 124 133 136 134 135 131 130 132 137 141 141 207 256 258
220 205 186 206 269 265 253 257 258 281 271 239 234 226 292 308 322 320 265 227 204 191 177 171 169 167 158 152 148 140 135 131 126 132 126 137 138 133 137 133 134 139 140 139 147 201 223 266 291
195 223 213 285 243 257 280 253 45 285 265 260 226 250 304 319 323 319 281 209 185 171 164 159 157 154 152 146 139 135 128 128 126 131 140 138 134 137 135 137 140 144 144 139 187 274 269 297 303
234 237 221 230 232 233 254 266 318 282 266 288 246 283 314 319 316 319 276 179 160 157 157 152 149 149 143 138 136 127 124 126 133 139 136 136 132 131 134 135 137 133 127 113 305 290 295 300 295